Content
SEND FEEDBACK

Daily
Averages
Monthly
Summary
United States of America

ST. LOUIS - SAINT LOUIS UNIVERSITY, MISSOURI


Home > North America > United States > Missouri
Elevation: 177 meters     Latitude: 38 38N     Longitude: 090 14W

WEATHER
 
SELECT A DAY
Number of Records: 186,007;   Date Range: 1/1/95 - 7/23/14
 
SHARE

PRINT THIS DATA

[ ← Previous Day ]
WEATHER ALMANAC - 4 FEBRUARY, 2013
[ Next Day → ]
[ °F ]   °C
Weather ElementAverageHighLow
Temperature4.4 °C15 °C (1:53 pm)-3.3 °C (1:53 am)
Dewpoint-2.3 °C2 °C (2:24 pm)-7.8 °C (1:53 am)
Humidity63.6 %80 % (11:51 pm)41 % (1:53 pm)
Barometer1012.2 hPa1015.6 hPa (1:53 am)1008.5 hPa (1:53 pm)
Wind Speed13.7 km/h29.6 km/h (3:53 pm)
Weather ElementAverage
Visibility16.1 km
Wind DirectionWSW (235.2 °)

Weather ElementTotal
Precipitation---
Heating Degree Days12.5 (Base 18.3)
Averaged from 25 records on 4 February, 2013
WEATHER CONDITIONS BREAKOUT
WIND DIRECTION BREAKOUT
WEATHER BY HOUR - 4 FEBRUARY, 2013
[ °F ]   °C
Local TimeTemperatureDewpointHumidityBarometerVisibilityWind DirectionWind SpeedGust SpeedPrecipitationEventsConditions
1:53 AM-3.3 °C-7.8 °C71 %1015.6 hPa16.1 kmSSE (150°)13 km/hClear
2:53 AM-2.2 °C-6.7 °C72 %1014.6 hPa16.1 kmSSE (150°)13 km/hOvercast
4:53 AM0 °C-5 °C69 %1012.5 hPa16.1 kmSSE (150°)13 km/hOvercast
5:53 AM0.6 °C-4.4 °C70 %1011.9 hPa16.1 kmSSE (150°)14.8 km/hOvercast
6:53 AM1.1 °C-3.9 °C70 %1011.2 hPa16.1 kmSSE (150°)14.8 km/hOvercast
7:53 AM2.2 °C-3.9 °C64 %1010.8 hPa16.1 kmCalmOvercast
8:53 AM2.2 °C-2.2 °C73 %1011.5 hPa16.1 kmCalmOvercast
9:53 AM3.9 °C-2.2 °C65 %1011.2 hPa16.1 kmCalmScattered Clouds
10:53 AM8.9 °C-2.2 °C46 %1010.8 hPa16.1 kmSSW (200°)16.7 km/hOvercast
11:53 AM11.1 °C1.1 °C50 %1009.8 hPa16.1 kmSSW (210°)13 km/hMostly Cloudy
12:53 PM13.3 °C1.7 °C45 %1009.1 hPa16.1 kmSW (220°)9.3 km/hClear
1:53 PM15 °C1.7 °C41 %1008.5 hPa16.1 kmVariable11.1 km/hClear
2:24 PM13 °C2 °C47 %1008.5 hPa16.1 kmNNW (330°)20.4 km/hClear
2:53 PM12.2 °C1.1 °C47 %1009.1 hPa16.1 kmNNW (330°)27.8 km/hClear
3:53 PM11.1 °C0.6 °C49 %1009.8 hPa16.1 kmNNW (330°)29.6 km/hClear
4:53 PM9.4 °C0 °C52 %1010.2 hPa16.1 kmNorth (350°)22.2 km/hClear
5:53 PM6.7 °C-0.6 °C60 %1011.9 hPa16.1 kmNorth (360°)20.4 km/hClear
6:53 PM4.4 °C-1.7 °C65 %1013.2 hPa16.1 kmNorth (350°)16.7 km/hClear
7:53 PM2.8 °C-2.8 °C67 %1014.2 hPa16.1 kmNorth (350°)13 km/hClear
8:53 PM0.6 °C-2.8 °C78 %1015.6 hPa16.1 kmNorth (350°)13 km/hClear
9:50 PM0 °C-4 °C75 %1015.2 hPa16.1 kmNorth (350°)14.8 km/hMostly Cloudy
9:53 PM0 °C-3.9 °C75 %1015.6 hPa16.1 kmNNW (340°)11.1 km/hScattered Clouds
10:53 PM-0.6 °C-3.9 °C79 %1015.6 hPa16.1 kmNorth (360°)9.3 km/hPartly Cloudy
11:51 PM-1 °C-4 °C80 %1015.6 hPa16.1 kmNorth (350°)13 km/hMostly Cloudy
11:53 PM-0.6 °C-3.9 °C79 %1015.6 hPa16.1 kmNorth (350°)11.1 km/hMostly Cloudy
Hourly data recorded from KCPS, located 0 kilometers away from St. Louis - Saint Louis University, Missouri







STORIES FROM OUR PARTNERS